| time (UTC) | temp C | wind direction | speed KPH | gust KPH | rain 1hr cm | rain 24hr cm | rain mn cm | humidity % | barometer mb |
| 20260510160515 | 14 | 211 | 1.6 | 8.0 | 0.00 | 0.20 | 0.00 | 77 | 1012.5 |
| 20260510155515 | 14 | 284 | 1.6 | 6.4 | 0.00 | 0.20 | 0.00 | 80 | 1012.5 |
| 20260510154515 | 13 | 249 | 1.6 | 9.7 | 0.00 | 0.23 | 0.00 | 80 | 1012.5 |
| 20260510153515 | 13 | 292 | 1.6 | 11.3 | 0.00 | 0.25 | 0.00 | 81 | 1012.4 |
| 20260510152535 | 13 | 288 | 0.0 | 6.4 | 0.00 | 0.28 | 0.00 | 81 | 1012.3 |
| 20260510151515 | 13 | 298 | 1.6 | 6.4 | 0.00 | 0.30 | 0.00 | 81 | 1012.1 |
| 20260510150514 | 14 | 293 | 1.6 | 9.7 | 0.00 | 0.33 | 0.00 | 81 | 1012.0 |
| 20260510145515 | 14 | 114 | 0.0 | 4.8 | 0.00 | 0.38 | 0.00 | 81 | 1011.8 |
| 20260510144515 | 14 | 249 | 0.0 | 3.2 | 0.00 | 0.41 | 0.00 | 81 | 1011.7 |
| 20260510143537 | 14 | 249 | 0.0 | 4.8 | 0.00 | 0.41 | 0.00 | 81 | 1011.6 |
| 20260510142517 | 14 | 249 | 0.0 | 1.6 | 0.00 | 0.46 | 0.00 | 81 | 1011.5 |
| 20260510141557 | 14 | 249 | 0.0 | 4.8 | 0.00 | 0.48 | 0.00 | 81 | 1011.4 |
| 20260510140517 | 14 | 249 | 0.0 | 6.4 | 0.00 | 0.48 | 0.00 | 80 | 1011.5 |
| 20260510135516 | 15 | 272 | 3.2 | 11.3 | 0.00 | 0.51 | 0.00 | 78 | 1011.3 |
| 20260510134638 | 15 | 283 | 1.6 | 9.7 | 0.00 | 0.51 | 0.00 | 80 | 1011.0 |
| 20260510133516 | 15 | 261 | 3.2 | 9.7 | 0.00 | 0.53 | 0.00 | 80 | 1010.8 |
| 20260510132515 | 14 | 277 | 3.2 | 9.7 | 0.00 | 0.53 | 0.00 | 82 | 1010.9 |
| 20260510131516 | 13 | 135 | 1.6 | 8.0 | 0.00 | 0.56 | 0.00 | 84 | 1010.7 |
| 20260510130537 | 13 | 203 | 1.6 | 9.7 | 0.00 | 0.56 | 0.00 | 84 | 1010.8 |
| 20260510125517 | 13 | 209 | 1.6 | 8.0 | 0.00 | 0.56 | 0.00 | 85 | 1010.8 |
| 20260510124516 | 13 | 129 | 1.6 | 6.4 | 0.00 | 0.58 | 0.00 | 86 | 1010.7 |
| 20260510123557 | 12 | 248 | 1.6 | 8.0 | 0.00 | 0.58 | 0.00 | 87 | 1010.7 |
| 20260510122516 | 12 | 295 | 0.0 | 3.2 | 0.00 | 0.58 | 0.00 | 89 | 1010.6 |
| 20260510121516 | 12 | 295 | 0.0 | 1.6 | 0.00 | 0.58 | 0.00 | 90 | 1010.5 |
| 20260510120516 | 11 | 295 | 0.0 | 1.6 | 0.00 | 0.58 | 0.00 | 91 | 1010.5 |
| 20260510115516 | 11 | 0.0 | 1.6 | 0.00 | 0.58 | 0.00 | 91 | 1010.5 | |
| 20260510114516 | 11 | 0.0 | 0.0 | 0.00 | 0.58 | 0.00 | 92 | 1010.6 | |
| 20260510113516 | 11 | 0.0 | 6.4 | 0.00 | 0.58 | 0.00 | 93 | 1010.7 | |
| 20260510112516 | 11 | 295 | 0.0 | 3.2 | 0.00 | 0.58 | 0.00 | 94 | 1010.4 |
| 20260510111536 | 10 | 294 | 0.0 | 1.6 | 0.00 | 0.58 | 0.00 | 94 | 1010.3 |
| 20260510110516 | 10 | 0.0 | 0.0 | 0.00 | 0.58 | 0.00 | 94 | 1010.3 | |
| 20260510105516 | 10 | 0.0 | 0.0 | 0.00 | 0.58 | 0.00 | 94 | 1010.2 | |
| 20260510104516 | 10 | 0.0 | 0.0 | 0.00 | 0.58 | 0.00 | 94 | 1010.0 | |
| 20260510103516 | 10 | 0.0 | 0.0 | 0.00 | 0.58 | 0.00 | 94 | 1009.8 | |
| 20260510102516 | 10 | 0.0 | 0.0 | 0.00 | 0.58 | 0.00 | 94 | 1009.7 | |
| 20260510101516 | 10 | 0.0 | 0.0 | 0.00 | 0.58 | 0.00 | 93 | 1009.5 | |
| 20260510100516 | 10 | 0.0 | 0.0 | 0.00 | 0.58 | 0.00 | 93 | 1009.4 | |
| 20260510095516 | 10 | 0.0 | 0.0 | 0.00 | 0.58 | 0.00 | 93 | 1009.1 | |
| 20260510094515 | 10 | 0.0 | 0.0 | 0.00 | 0.58 | 0.00 | 93 | 1009.0 | |
| 20260510093516 | 10 | 0.0 | 0.0 | 0.00 | 0.58 | 0.00 | 92 | 1008.9 | |
| 20260510092536 | 10 | 0.0 | 0.0 | 0.00 | 0.58 | 0.00 | 92 | 1008.7 | |
| 20260510091536 | 10 | 0.0 | 0.0 | 0.00 | 0.58 | 0.00 | 92 | 1008.6 | |
| 20260510090516 | 10 | 0.0 | 0.0 | 0.00 | 0.58 | 0.00 | 92 | 1008.4 | |
| 20260510085516 | 10 | 0.0 | 0.0 | 0.00 | 0.58 | 0.00 | 91 | 1008.7 | |
| 20260510084515 | 11 | 0.0 | 0.0 | 0.00 | 0.58 | 0.00 | 90 | 1008.9 | |
| 20260510083515 | 11 | 0.0 | 0.0 | 0.00 | 0.58 | 0.00 | 90 | 1008.8 | |
| 20260510082515 | 11 | 294 | 0.0 | 1.6 | 0.00 | 0.58 | 0.00 | 90 | 1008.8 |
| 20260510081515 | 11 | 296 | 0.0 | 4.8 | 0.00 | 0.58 | 0.00 | 90 | 1008.8 |
| 20260510080515 | 11 | 99 | 3.2 | 6.4 | 0.00 | 0.58 | 0.00 | 90 | 1008.2 |
| 20260510075536 | 11 | 305 | 0.0 | 1.6 | 0.00 | 0.58 | 0.00 | 90 | 1008.6 |
| 20260510074515 | 11 | 305 | 0.0 | 4.8 | 0.00 | 0.58 | 0.00 | 90 | 1008.5 |
| 20260510073536 | 11 | 305 | 0.0 | 3.2 | 0.00 | 0.58 | 0.00 | 90 | 1009.0 |
| 20260510072515 | 11 | 0.0 | 1.6 | 0.00 | 0.58 | 0.00 | 90 | 1009.4 | |
| 20260510071516 | 11 | 300 | 0.0 | 6.4 | 0.00 | 0.58 | 0.00 | 90 | 1009.7 |
| 20260510070515 | 11 | 301 | 0.0 | 4.8 | 0.00 | 0.58 | 0.00 | 90 | 1009.7 |
| 20260510065515 | 11 | 281 | 0.0 | 6.4 | 0.00 | 0.58 | 0.00 | 90 | 1009.7 |
| 20260510064515 | 11 | 0.0 | 1.6 | 0.00 | 0.58 | 0.00 | 91 | 1009.6 | |
| 20260510063515 | 11 | 112 | 0.0 | 1.6 | 0.00 | 0.58 | 0.00 | 91 | 1009.5 |
| 20260510062515 | 11 | 0.0 | 4.8 | 0.00 | 0.58 | 0.00 | 90 | 1009.3 | |
| 20260510061515 | 11 | 0.0 | 1.6 | 0.00 | 0.58 | 0.00 | 90 | 1009.1 | |
| 20260510060516 | 11 | 0.0 | 0.0 | 0.00 | 0.58 | 0.00 | 89 | 1009.2 | |
| 20260510055516 | 11 | 0.0 | 0.0 | 0.00 | 0.58 | 0.00 | 89 | 1009.2 | |
| 20260510054516 | 11 | 105 | 0.0 | 1.6 | 0.00 | 0.58 | 0.00 | 88 | 1009.1 |
| 20260510053516 | 11 | 105 | 0.0 | 3.2 | 0.00 | 0.58 | 0.00 | 88 | 1008.9 |
| 20260510052516 | 11 | 105 | 0.0 | 4.8 | 0.00 | 0.58 | 0.00 | 89 | 1008.9 |
| 20260510051516 | 11 | 105 | 0.0 | 3.2 | 0.00 | 0.58 | 0.00 | 88 | 1008.9 |
| 20260510050516 | 11 | 105 | 0.0 | 3.2 | 0.00 | 0.58 | 0.00 | 88 | 1008.9 |
| 20260510045516 | 11 | 105 | 0.0 | 4.8 | 0.00 | 0.58 | 0.00 | 87 | 1009.0 |
| 20260510044516 | 11 | 105 | 1.6 | 3.2 | 0.00 | 0.58 | 0.00 | 88 | 1009.1 |
| 20260510043516 | 11 | 105 | 0.0 | 1.6 | 0.00 | 0.58 | 0.00 | 88 | 1009.1 |
| 20260510042556 | 11 | 105 | 0.0 | 3.2 | 0.00 | 0.58 | 0.00 | 88 | 1009.0 |
| 20260510041516 | 11 | 105 | 0.0 | 3.2 | 0.00 | 0.58 | 0.00 | 88 | 1009.0 |
| 20260510040516 | 11 | 0.0 | 3.2 | 0.00 | 0.58 | 0.00 | 88 | 1009.0 | |
| 20260510035516 | 11 | 0.0 | 4.8 | 0.00 | 0.58 | 0.58 | 88 | 1009.1 | |
| 20260510034516 | 11 | 105 | 0.0 | 1.6 | 0.00 | 0.58 | 0.58 | 88 | 1009.0 |
| 20260510033516 | 11 | 105 | 1.6 | 6.4 | 0.00 | 0.58 | 0.58 | 87 | 1008.8 |
| 20260510032536 | 11 | 105 | 1.6 | 4.8 | 0.00 | 0.58 | 0.58 | 87 | 1009.0 |
| 20260510031516 | 11 | 105 | 1.6 | 3.2 | 0.00 | 0.58 | 0.58 | 87 | 1009.0 |
| 20260510030516 | 11 | 105 | 1.6 | 4.8 | 0.00 | 0.58 | 0.58 | 88 | 1009.2 |
| 20260510025516 | 11 | 105 | 1.6 | 4.8 | 0.00 | 0.58 | 0.58 | 88 | 1009.2 |
| 20260510024516 | 11 | 100 | 1.6 | 4.8 | 0.00 | 0.58 | 0.58 | 88 | 1009.2 |
| 20260510023516 | 11 | 71 | 0.0 | 3.2 | 0.00 | 0.58 | 0.58 | 90 | 1009.3 |
| 20260510022557 | 11 | 71 | 1.6 | 4.8 | 0.00 | 0.58 | 0.58 | 89 | 1009.0 |
| 20260510021516 | 11 | 68 | 0.0 | 3.2 | 0.00 | 0.58 | 0.58 | 90 | 1009.1 |
| 20260510020516 | 11 | 68 | 0.0 | 3.2 | 0.00 | 0.58 | 0.58 | 91 | 1009.2 |
| 20260510015536 | 11 | 0.0 | 3.2 | 0.00 | 0.58 | 0.58 | 91 | 1009.0 | |
| 20260510014516 | 11 | 0.0 | 0.0 | 0.00 | 0.58 | 0.58 | 91 | 1009.0 | |
| 20260510013516 | 11 | 117 | 1.6 | 4.8 | 0.00 | 0.58 | 0.58 | 91 | 1009.3 |
| 20260510012536 | 11 | 0.0 | 0.0 | 0.00 | 0.58 | 0.58 | 92 | 1009.2 | |
| 20260510011516 | 11 | 0.0 | 0.0 | 0.00 | 0.58 | 0.58 | 92 | 1009.2 | |
| 20260510010516 | 11 | 0.0 | 3.2 | 0.00 | 0.58 | 0.58 | 92 | 1009.0 | |
| 20260510005516 | 11 | 0.0 | 0.0 | 0.00 | 0.58 | 0.58 | 92 | 1009.1 | |
| 20260510004536 | 11 | 0.0 | 1.6 | 0.00 | 0.58 | 0.58 | 92 | 1009.0 | |
| 20260510003516 | 11 | 0.0 | 0.0 | 0.00 | 0.58 | 0.58 | 92 | 1009.0 | |
| 20260510002516 | 11 | 0.0 | 0.0 | 0.00 | 0.58 | 0.58 | 92 | 1008.8 | |
| 20260510001515 | 11 | 0.0 | 0.0 | 0.00 | 0.58 | 0.58 | 91 | 1008.5 | |
| 20260510000516 | 11 | 0.0 | 0.0 | 0.00 | 0.58 | 0.58 | 91 | 1008.4 | |
| 20260509235516 | 11 | 0.0 | 0.0 | 0.00 | 0.58 | 0.58 | 91 | 1008.5 | |
| 20260509234516 | 11 | 0.0 | 0.0 | 0.00 | 0.58 | 0.58 | 91 | 1008.4 | |
| 20260509233516 | 12 | 0.0 | 0.0 | 0.00 | 0.58 | 0.58 | 92 | 1008.2 | |
| 20260509232515 | 11 | 0.0 | 0.0 | 0.00 | 0.58 | 0.58 | 92 | 1008.0 | |
| 20260509231516 | 11 | 0.0 | 0.0 | 0.00 | 0.58 | 0.58 | 92 | 1008.0 | |
| 20260509230516 | 11 | 0.0 | 0.0 | 0.00 | 0.58 | 0.58 | 91 | 1008.1 | |
| 20260509225515 | 11 | 0.0 | 0.0 | 0.00 | 0.58 | 0.58 | 91 | 1008.1 | |
| 20260509224515 | 11 | 0.0 | 0.0 | 0.00 | 0.58 | 0.58 | 91 | 1008.1 | |
| 20260509223515 | 11 | 0.0 | 3.2 | 0.00 | 0.58 | 0.58 | 91 | 1007.9 | |
| 20260509222515 | 11 | 148 | 0.0 | 3.2 | 0.00 | 0.58 | 0.58 | 92 | 1008.1 |
| 20260509221516 | 11 | 0.0 | 1.6 | 0.00 | 0.58 | 0.58 | 92 | 1008.1 | |
| 20260509220515 | 11 | 0.0 | 0.0 | 0.00 | 0.58 | 0.58 | 92 | 1008.3 | |
| 20260509215515 | 11 | 148 | 0.0 | 3.2 | 0.00 | 0.58 | 0.58 | 92 | 1008.5 |
| 20260509214515 | 11 | 189 | 0.0 | 1.6 | 0.00 | 0.58 | 0.58 | 93 | 1008.6 |
| 20260509213515 | 10 | 0.0 | 0.0 | 0.00 | 0.58 | 0.58 | 92 | 1008.6 | |
| 20260509212515 | 10 | 0.0 | 0.0 | 0.00 | 0.58 | 0.58 | 92 | 1008.6 | |
| 20260509211515 | 10 | 92 | 0.0 | 1.6 | 0.00 | 0.58 | 0.58 | 92 | 1008.7 |
| 20260509210515 | 10 | 92 | 0.0 | 4.8 | 0.00 | 0.58 | 0.58 | 92 | 1008.8 |
| 20260509205535 | 10 | 92 | 0.0 | 4.8 | 0.00 | 0.58 | 0.58 | 92 | 1009.0 |
| 20260509204516 | 10 | 77 | 0.0 | 3.2 | 0.00 | 0.58 | 0.58 | 92 | 1009.1 |
| 20260509203535 | 10 | 77 | 0.0 | 1.6 | 0.00 | 0.58 | 0.58 | 92 | 1009.2 |
| 20260509202515 | 10 | 77 | 1.6 | 3.2 | 0.00 | 0.58 | 0.58 | 92 | 1009.3 |
| 20260509201515 | 10 | 76 | 0.0 | 4.8 | 0.03 | 0.58 | 0.58 | 92 | 1009.4 |
| 20260509200515 | 10 | 76 | 0.0 | 4.8 | 0.03 | 0.58 | 0.58 | 92 | 1009.5 |
| 20260509195516 | 10 | 113 | 0.0 | 3.2 | 0.03 | 0.58 | 0.58 | 91 | 1009.6 |
| 20260509194515 | 10 | 117 | 0.0 | 3.2 | 0.03 | 0.58 | 0.58 | 92 | 1009.7 |
| 20260509193515 | 10 | 117 | 0.0 | 3.2 | 0.03 | 0.58 | 0.58 | 92 | 1009.6 |
| 20260509192535 | 10 | 117 | 1.6 | 4.8 | 0.05 | 0.58 | 0.58 | 92 | 1009.6 |
| 20260509191555 | 10 | 168 | 0.0 | 4.8 | 0.05 | 0.56 | 0.56 | 92 | 1009.7 |
| 20260509190515 | 10 | 0.0 | 1.6 | 0.08 | 0.56 | 0.56 | 93 | 1009.8 | |
| 20260509185515 | 10 | 168 | 0.0 | 4.8 | 0.08 | 0.56 | 0.56 | 93 | 1009.8 |
| 20260509184517 | 10 | 169 | 0.0 | 3.2 | 0.10 | 0.56 | 0.56 | 93 | 1009.9 |
| 20260509183537 | 10 | 169 | 0.0 | 3.2 | 0.10 | 0.56 | 0.56 | 92 | 1010.0 |
| 20260509182516 | 10 | 0.0 | 0.0 | 0.10 | 0.53 | 0.53 | 91 | 1010.1 | |
| 20260509181517 | 10 | 0.0 | 0.0 | 0.08 | 0.51 | 0.51 | 91 | 1010.2 | |
| 20260509180537 | 10 | 0.0 | 1.6 | 0.05 | 0.48 | 0.48 | 91 | 1010.1 | |
| 20260509175517 | 10 | 0.0 | 3.2 | 0.08 | 0.48 | 0.48 | 91 | 1010.2 | |
| 20260509174514 | 10 | 174 | 0.0 | 1.6 | 0.05 | 0.46 | 0.46 | 91 | 1010.2 |
| 20260509173517 | 9 | 174 | 0.0 | 3.2 | 0.05 | 0.46 | 0.46 | 90 | 1010.1 |
| 20260509172516 | 9 | 174 | 0.0 | 3.2 | 0.05 | 0.43 | 0.43 | 91 | 1010.1 |
| 20260509171516 | 9 | 179 | 0.0 | 3.2 | 0.05 | 0.43 | 0.43 | 91 | 1010.3 |
| 20260509170516 | 9 | 102 | 0.0 | 3.2 | 0.05 | 0.43 | 0.43 | 91 | 1010.5 |
| 20260509165516 | 9 | 102 | 0.0 | 3.2 | 0.03 | 0.41 | 0.41 | 91 | 1010.6 |
| 20260509164516 | 9 | 102 | 0.0 | 4.8 | 0.05 | 0.41 | 0.41 | 91 | 1010.7 |
| 20260509163516 | 9 | 103 | 1.6 | 4.8 | 0.08 | 0.41 | 0.41 | 91 | 1011.0 |
| 20260509162516 | 9 | 103 | 0.0 | 4.8 | 0.08 | 0.38 | 0.38 | 92 | 1011.1 |
| 20260509161516 | 8 | 103 | 1.6 | 6.4 | 0.10 | 0.38 | 0.38 | 92 | 1011.2 |